www.pogodaiklimat.ru
ПОГОДА в Фесе
Время
(UTC), дата
03 25.03
06 25.03
09 25.03
12 25.03
15 25.03
18 25.03
21 25.03
00 26.03
03 26.03
06 26.03
09 26.03
12 26.03
15 26.03
18 26.03
21 26.03
00 27.03
03 27.03
06 27.03
09 27.03
12 27.03
15 27.03
18 27.03
21 27.03
00 28.03
03 28.03
06 28.03
09 28.03
12 28.03
15 28.03
18 28.03
21 28.03
00 29.03
03 29.03
06 29.03
09 29.03
12 29.03
15 29.03
18 29.03
21 29.03
00 30.03
03 30.03
06 30.03
09 30.03
12 30.03
15 30.03
18 30.03
21 30.03
00 31.03
03 31.03
06 31.03
09 31.03
12 31.03
15 31.03
18 31.03
21 31.03
00 1.04
Ветер
(напр.,м/с)
Видим. Явления Облачность Т
(С)
Тd
(С)
f
(%)
Тe
(С)
Тes
(С)
Комфортность P
(гПа)
Po
(гПа)
Тmin
(С)
Tmax
(С)
R
(мм)
R24
(мм)
S
(см)
штиль 0 10 км 1/0
[Ac trans]
+2.8 +2.8 100 +1 +2 1011.7 867.6 +2.6 666
штиль 0 10 км ясно +14.2 +6.0 58 +14 +30 опасность
простуды
1011.6 869.1
Ю 2 10 км 4/4 1200 м
[Sc]
+16.8 +2.4 38 +17 +28 1010.5 868.1 666
ЮВ 2 10 км 5/5 1200 м
[Sc]
+18.8 -1.2 26 +19 +23 1008.7 866.7
штиль 0 10 км 3/3 1200 м
[Sc]
+15.8 +6.7 55 +16 +16 1009.8 866.8 +19.2 666
штиль 0 10 км 4/4 1200 м
[Sc]
+10.6 +7.9 83 +10 +10 1008.8 867.3
штиль 0 10 км 1/1 1200 м
[Sc]
+7.8 +6.2 90 +7 +7 1010.3 868.5
С 2 10 км ясно +6.6 +6.2 97 +4 +4 1009.8 868.3
штиль 0 10 км 6/6 1200 м
[Sc Ac trans]
+5.6 +4.8 95 +4 +5 1011.9 869.1 +5.4 666
штиль 0 10 км 3/3 1200 м
[Cu med, cong]
+15.0 +9.2 68 +15 +26 опасность
простуды
1011.8 870.2
штиль 0 10 км 6/5 1050 м
[Cb calv]
+18.0 +4.2 40 +18 +29 1010.8 869.2
С 3 10 км гроза без осадков 9/9 900 м
[Cb cap]
+15.0 +5.6 53 +14 +15 1010.9 868.4
В 3 10 км {гроза} 6/6 1050 м
[Cb cap]
+11.8 +7.2 73 +10 +10 1014.8 870.8 +19.0
штиль 0 10 км {гроза} 4/4 1200 м
[Sc diur, vesp]
+8.4 +7.6 95 +7 +7 1014.1 871.6 1
З 2 10 км 3/3 1200 м
[Sc diur, vesp]
+5.6 +5.2 97 +3 +3 1014.1 871.5
З 2 10 км ясно +5.2 +4.8 97 +2 +2 1014.4 871.0
С 2 10 км 3/0
[Cs]
+4.0 +4.0 100 +1 +2 1016.8 872.0 +3.8 666
штиль 0 10 км ясно +14.0 +7.1 63 +14 +30 опасность
простуды
1016.1 873.1 1.2
ЮВ 4 10 км 5/5 1050 м
[Cu med, cong]
+18.2 +6.1 45 +18 +24 1014.8 872.3
З 3 7000 м мгла 8/5 1050 м
[Cb calv Cs]
+18.6 +6.6 45 +19 +22 1012.5 870.3
С 4 7000 м мгла 9/5 1050 м
[Cb calv Ac As Cs]
+14.4 +6.3 58 +13 +13 1014.7 871.0 +19.6 666
штиль 0 7000 м мгла 9/4 1050 м
[Sc diur, vesp Ac As Cs]
+12.2 +8.4 78 +12 +12 1014.5 872.6
штиль 0 8000 м дымка 8/3 1200 м
[Sc diur, vesp Ac trans Cs]
+10.0 +8.1 88 +9 +9 1013.1 871.9
СВ 3 8000 м дымка 9/3 1200 м
[Sc Ac trans Cs]
+9.8 +7.9 88 +7 +7 1012.6 871.5
СВ 4 6000 м слаб. ливневой дождь 10/6 900 м
[Cb calv As op]
+10.6 +8.3 86 +8 +8 1013.6 871.6 +8.8 666
штиль 0 7000 м мгла 9/6 300 м
[Cb calv Ac As]
+13.8 +10.2 79 +13 +17 1014.4 872.6 0.0 0.0
штиль 0 7000 м мгла 9/6 1050 м
[Cb calv Ac As]
+14.8 +9.4 70 +15 +19 1014.3 872.2
штиль 0 4000 м дождь {ливн. осадки} 10/6 900 м
[Cb calv As op]
+12.6 +11.2 91 +12 +13 1013.3 870.8 1
штиль 0 3000 м дымка {ливн. осадки, дождь} 10/9 450 м
[Cb calv As op]
+11.4 +11.1 98 +11 +11 1013.1 870.6 +15.2
СЗ 3 4000 м дождь {ливн. осадки} 10/9 600 м
[Cb calv As op]
+11.0 +11.0 100 +9 +9 1011.4 869.8 4
штиль 0 2000 м дождь 10/9 900 м
[Cb calv As op]
+10.8 +10.8 100 +10 +10 1010.6 869.2
штиль 0 2000 м дождь 10/10 450 м
[Cb calv As op]
+10.8 +10.8 100 +10 +10 1010.0 868.2 21
штиль 0 2000 м слаб. дождь 10/10 450 м
[Cb calv As op]
+10.4 +10.4 100 +10 +10 1009.9 867.7 +10.4
штиль 0 6000 м дымка {дождь} 10/9 1200 м
[Cb calv As op]
+10.6 +10.2 97 +10 +10 1011.4 869.0 20 46.8
СВ 2 8000 м дымка 10/8 150 м
[Cb calv As op]
+13.2 +10.7 85 +12 +13 1009.1 867.6 666
В 4 10 км 10/6 1050 м
[Cb calv As op]
+14.2 +13.2 94 +13 +13 1006.1 865.4 0.0
ЮВ 3 10 км 10/6 1050 м
[Cb calv As op]
+13.8 +12.1 89 +13 +13 1006.0 865.0 +14.8
ЮВ 2 10 км 10/8 1050 м
[Cb calv As op]
+12.8 +11.4 91 +12 +12 1007.1 865.7
Ю 3 8000 м в посл. час гроза {ливн. осадки} 10/9 1050 м
[Cb calv As op]
+11.8 +11.1 95 +10 +10 1005.9 865.0
штиль 0 5000 м в посл. час ливневой дождь 10/9 1050 м
[Cb calv As op]
+11.4 +11.1 98 +11 +11 1004.4 863.9 3
штиль 0 10 км дымка {гроза, ливн. осадки} 3/3 1200 м
[Sc]
+7.8 +7.4 97 +7 +7 1007.7 865.6 +7.6 666
ЮЗ 2 10 км ясно +13.8 +8.2 69 +13 +26 опасность
простуды
1007.4 866.6 6 9.1
ЮЗ 3 10 км 3/3 1200 м
[Cu hum]
+17.6 +7.7 52 +18 +28 1006.0 866.0
СЗ 2 10 км 1/1 1050 м
[Cu hum]
+20.4 +1.8 29 +21 +28 комфорт 1004.7 865.2
ЮЗ 5 10 км ясно +14.8 +8.1 64 +13 +13 1007.3 865.6 +20.4
штиль 0 10 км ясно +11.0 +8.0 82 +10 +10 1008.8 867.4
штиль 0 10 км ясно +7.2 +6.4 95 +6 +6 1009.9 868.3
штиль 0 10 км ясно +4.4 +3.5 94 +3 +3 1009.7 868.0
ЮВ 3 12 км ясно +6.0 +3.8 86 +3 +3 1012.7 869.6 +3.8 666
СЗ 6 15 км ясно +16.4 +1.1 35 +15 +20 1013.0 871.4
СЗ 4 10 км ясно +19.6 +3.4 34 +20 +32 1011.5 870.0 666
З 4 8000 м мгла ясно +21.4 +3.5 31 +22 +26 комфорт 1010.2 868.7
ЮЗ 3 8000 м мгла ясно +15.4 +8.0 61 +15 +15 1011.6 869.0 +21.4 666
штиль 0 10 км ясно +10.8 +8.5 86 +10 +10 1011.8 870.5
штиль 0 10 км ясно +8.4 +5.5 82 +8 +8 1012.2 870.9
СЗ 3 10 км ясно +6.6 +4.9 89 +3 +3 1012.0 870.7
Местоположение метеостанции Феса (Иран): широта 28.97 долгота 53.68 высота над уровнем моря 1288 м.
В архиве по умолчанию представлена погода в Фесе за последнюю неделю. Архивные данные за месяц целиком и за предыдущие месяцы, начиная с января 2011 года, Вы можете получить, выбрав интересующий диапазон дат из раскрывающегося списка и нажав кнопку "Найти!".
*Определитесь, кто Вы:
Внимание! Время в таблицах - всемирное. Для получения местного времени необходимо прибавить поправку, которая равна 3.5 ч.
Смотрите также архив погоды в соседних городах и на ближайших метеорологических станциях:
Партнеры нашего сайта:      
Пояснения к столбцам:
  • Ветер - указаны скорость ветра в м/с - средняя за 10 мин, порывы в срок и между сроками (в фигурных скобках) и направление, откуда дует ветер: С - северный,
  • СВ - северо-восточный, В - восточный, ЮВ - юго-восточный, Ю - южный, ЮЗ - юго-западный, З - западный, СЗ - северо-западный.
  • Видимость - горизонтальная дальность видимости в метрах или километрах. При видимости от 1 до 10 км при отсутствии осадков обычно наблюдается дымка, при ухудшении видимости до 1 км и менее - туман. В сухую погоду видимость может ухудшаться дымом, пылью или мглою.
  • Явления - указаны атмосферные явления, наблюдавшиеся в срок или в последний час перед сроком; фигурными скобками обозначены явления, наблюдавшиеся между сроками (за 1-3 часа до срока); квадратными скобками обозначены град или гололедные отложения с указанием их диаметра в мм.
  • Облачность - указаны через наклонную черту общая и нижняя облачность в баллах и высота нижней границы облаков в метрах; квадратными скобками обозначены формы облаков: Ci - перистые, Cs - перисто-слоистые, Cc - перисто-кучевые, Ac - высококучевые, As - высокослоистые, Sc - слоисто-кучевые, Ns - слоисто-дождевые, Cu - кучевые, Cb - кучево-дождевые. Подробнее классификацию облаков см. в Атласе облаков (PDF).
  • T - Температура воздуха - температура, измеренная на высоте 2 м над землей.
  • Td - Температура точки росы - температура, при понижении до которой содержащийся в воздухе водяной пар достигнет насыщения.
  • f - Относительная влажность воздуха - влажноcть воздуха, измеренная на высоте 2 м над землей.
  • Te - Эффективная температура - температура, которую ощущает одетый по сезону человек в тени. Характеристика душности погоды. При расчете учитывается влияние влажности воздуха и скорости ветра на теплоощущения человека.
  • Tes - Эффективная температура на солнце - температура, которую ощущает человек, с поправкой на солнечный нагрев. Характеристика знойности погоды. Зависит от высоты солнца над горизонтом, облачности и скорости ветра. Ночью, в пасмурную погоду, а также при ветре 12 м/с и более поправка равна нулю.
  • P - Атмосферное давление - приведенное к уровню моря атмосферное давление.
  • Po - Атмосферное давление - измеренное на уровне метеостанции атмосферное давление.
  • Tmin - Минимальная температура - минимум температуры воздуха на высоте 2 м над землей.
  • Tmax - Максимальная температура - максимум температуры воздуха на высоте 2 м над землей.
  • R - Количество осадков - Количество выпавших осадков за период времени, мм. При наведении курсора мыши на число - период времени, за который выпало указанное количество осадков.
  • R24 - Количество осадков - Количество выпавших осадков за 24 часа, мм.
  • S - Снежный покров - Высота снежного покрова, см. При наведении курсора мыши на число - состояние снежного покрова и степень покрытия местности в баллах.